This is the latest recevied weather packets stored in our database for station/object IA5ITY-13. If no packets are shown the sender has not sent any weather packets the latest 10 day(s).
| Time | Temp. | Humidity | Pressure | Rain* | Wind** | Luminosity | Snow |
|---|---|---|---|---|---|---|---|
| 1778308510 | 22.78° C | 61% | 1015.2 hPa | 0 mm | - | - | - |
| 1778308222 | 22.78° C | 60% | 1015.2 hPa | 0 mm | - | - | - |
| 1778307910 | 22.78° C | 69% | 1015.2 hPa | 0 mm | - | - | - |
| 1778307613 | 21.11° C | 73% | 1015.2 hPa | 0 mm | - | - | - |
| 1778307313 | 20° C | 76% | 1015.3 hPa | 0 mm | - | - | - |
| 1778307014 | 20° C | 79% | 1015.4 hPa | 0 mm | - | - | - |
| 1778306710 | 18.89° C | 80% | 1015.4 hPa | 0 mm | - | - | - |
| 1778306433 | 18.89° C | 82% | 1015.4 hPa | 0 mm | - | - | - |
| 1778306110 | 18.89° C | 84% | 1015.5 hPa | 0 mm | - | - | - |
| 1778305814 | 17.78° C | 88% | 1015.5 hPa | 0 mm | - | - | - |
| 1778305515 | 17.78° C | 89% | 1015.4 hPa | 0 mm | - | - | - |
| 1778304910 | 17.22° C | 93% | 1015.4 hPa | 0 mm | - | - | - |
| 1778304623 | 17.22° C | 96% | 1015.3 hPa | 0 mm | - | - | - |
| 1778304014 | 15° C | 99% | 1015.3 hPa | 0 mm | - | - | - |
| 1778303713 | 15° C | 97% | 1015.3 hPa | 0 mm | - | - | - |
| 1778303414 | 15° C | 98% | 1015.2 hPa | 0 mm | - | - | - |
| 1778303110 | 15° C | 98% | 1015.2 hPa | 0 mm | - | - | - |
| 1778302831 | 13.89° C | 98% | 1015.2 hPa | 0 mm | - | - | - |
| 1778302510 | 13.89° C | 98% | 1015.1 hPa | 0 mm | - | - | - |
| 1778302214 | 13.89° C | 98% | 1015.3 hPa | 0 mm | - | - | - |
| 1778301913 | 13.89° C | 97% | 1015.1 hPa | 0 mm | - | - | - |
| 1778301613 | 13.89° C | 97% | 1015.1 hPa | 0 mm | - | - | - |
| 1778301310 | 13.89° C | 98% | 1015.2 hPa | 0 mm | - | - | - |
| 1778301024 | 13.89° C | 98% | 1015.2 hPa | 0 mm | - | - | - |
| 1778300710 | 13.89° C | 97% | 1015.3 hPa | 0 mm | - | - | - |
* Rain latest hour (hover to see other rain measurements)
** Current wind speed in m/s (hover to see current wind gust speed)